Location: ??????????
(48.4699°N, 37.9573°E)
Time: 21:10:14
(UTC+00:00)

SKYMED 2 - Pass Details

Date: 20 January 2021
Orbit: 621 x 623 km, 97.9° (Epoch: 02 March)

Event Time Altitude Azimuth Distance (km) Brightness Sun altitude
Exits shadow 15:29:48 - 16° (NNE) 2,802 6.6 -13.3°
Reaches altitude 10° 15:31:45 10° 19° (NNE) 2,005 5.9 -13.6°
Maximum altitude 15:36:06 67° 102° (ESE) 681 3.5 -14.3°
Drops below altitude 10° 15:40:24 10° 185° (S) 1,988 6.4 -15.0°
Sets 15:42:35 0° 188° (S) 2,889 7.3 -15.3°
